COSMOS 2251 DEB, 34459

Orbit data source: Space-Track

COSMOS 2251 DEB, 34459 is space debris in LEO originally from a launch on Wed, 16 Jun 1993 UTC launched from the Plesetsk Missile And Space Complex (PKMTR). The debris from Iridium 33, an American commercial communications satellite, has been tracked extensively since its accidental collision with the defunct Russian satellite Cosmos 2251 in 2009. This event, occurring at high speed in low Earth orbit (LEO), generated thousands of pieces of space debris, significantly increasing the risk of further collisions. The Iridium 33 debris cloud has impacted space traffic management and orbital debris mitigation strategies, making it a subject of ongoing study in space situational awareness.

Loading next visibility...
Identifier
34459, 1993-036TC
Orbit
LEO
Country
Flag of CISCIS
Related business
Manufacturer
Unknown
Mission
Spacecraft
Bus & Motor
Unknown
Mass
Unknown
Launch date (UTC)
1993-06-16 (33 years ago)
Launch vehicle
Unknown
Launch site
Plesetsk Missile And Space Complex (PKMTR)
Object type
Payload
Rocket body
Debris
Shape & HBR
Unknown shape, 0.1 m
Radar Cross Section
Small (<0.1 m²)

Expand to show TLE details & history
Last TLE update: 11 hours ago

TLE from 11 hours ago
0 COSMOS 2251 DEB
1 34459U 93036TC  26063.13654927  .00000660  00000-0  39203-3 0  9992
2 34459  74.0776 113.3495 0190669 164.5196 196.1885 14.00655117868513
Epoch: 2026-03-04T03:16Z
TLE epoch observation values (Epoch: 2026-03-04T03:16:37.856Z)
Latitude
-0.00006°
Longitude
-97.71384°
Altitude
1,027.436 km
Speed
7.271 km/s
True Right ascension
07h 33m 23s
True Declination
0° 00' 00"
Sunlit
Object was in full shadow at epoch
Visualization orbit readout
Latitude
Unknown
Longitude
Unknown
Altitude
Unknown
Speed
Unknown
Apparent Right ascension
Unknown
Apparent Declination
Unknown
Sunlit
N/A
Visualization observer readout
Local Sidereal Time
17:40:31
Azimuth
Unknown
Elevation
Unknown
Doppler factor
Unknown
Orbital elements
Apogee altitude
1,027.751 km
Perigee altitude
750.621 km
Semi-major axis
7,267.323 km
Eccentricity
0.01907
Inclination
74.0776°
RAAN
113.3495°
Arg. of periapsis
164.5196°
True anomaly
195.593°
Mean anomaly
196.1885°
Eccentric anomaly
195.88941°
Mean motion
3.50333 °/min
Orbital period
102.76 mins
BSTAR
0.00039203
Loading maneuver chart data...
Computing Atmospheric mass density...

Documentation

Showing up to 5 results
|